Siren, WI

8:44 PM CST on November 19, 2019 (GMT -0600)
Burnett County

Weather History for KRZN - October, 2019

Change the Weather History Date:

Monday, October 21, 2019

  Actual Average Record
Temperature  
Mean Temperature 48 °F -  
Max Temperature 53 °F - - ()
Min Temperature 43 °F - - ()
Degree Days  
Heating Degree Days 17    
Moisture  
Dew Point 42 °F    
Average Humidity 81    
Maximum Humidity 99    
Minimum Humidity 41    
Precipitation  
Precipitation 1.76 in - - ()
Sea Level Pressure  
Sea Level Pressure 29.39 in    
Wind  
Wind Speed 6 mph (East)    
Max Wind Speed 14 mph    
Max Gust Speed 24 mph    
Visibility 8 miles    
Events Rain    
Averages and records for this station are not official NWS values.
T = Trace of Precipitation, MM = Missing Value Source: NWS Daily Summary

Daily Weather History Graph

Daily Weather History Graph

Search for Another Location

Airport or City:

Astronomy

Oct. 21, 2019 Rise Set
Actual Time 7:34 AM CDT 6:13 PM CDT
Civil Twilight 7:03 AM CDT 6:43 PM CDT
Nautical Twilight 6:28 AM CDT 7:18 PM CDT
Astronomical Twilight 5:54 AM CDT 7:52 PM CDT
Moon No Moon Rise 3:03 PM CDT (10/21)
Length of Visible Light 11h 40m
Length of Day
10h 39m
Waning Gibbous, 48% of the Moon is Illuminated
Oct 21
Waning Gibbous
Oct 27
New
Nov 4
First Quarter
Nov 12
Full
Nov 19
Last Quarter

Hourly Weather History & Observations

Time (CDT) Temp. Windchill Dew Point Humidity Pressure Visibility Wind Dir Wind Speed Gust Speed Precip Events Conditions
12:15 AM 53.2 °F - 35.1 °F 50% 29.83 in 10.0 mi ESE 4.6 mph - N/A   Clear
12:35 AM 52.7 °F - 35.6 °F 52% 29.81 in 10.0 mi Calm Calm - N/A   Clear
12:55 AM 53.2 °F - 35.8 °F 52% 29.81 in 10.0 mi SE 4.6 mph - N/A   Clear
1:15 AM 53.2 °F - 36.3 °F 53% 29.80 in 10.0 mi SE 4.6 mph - N/A   Clear
1:35 AM 53.2 °F - 35.8 °F 52% 29.78 in 10.0 mi ESE 5.8 mph - N/A   Clear
1:55 AM 53.1 °F - 35.6 °F 52% 29.76 in 10.0 mi ESE 6.9 mph - N/A   Clear
2:15 AM 52.5 °F - 35.8 °F 53% 29.73 in 10.0 mi East 5.8 mph - N/A   Clear
2:35 AM 52.3 °F - 36.1 °F 54% 29.74 in 10.0 mi ESE 6.9 mph - N/A   Clear
2:55 AM 52.2 °F - 36.1 °F 54% 29.75 in 10.0 mi ESE 5.8 mph - N/A   Clear
3:15 AM 52.0 °F - 36.1 °F 55% 29.74 in 10.0 mi ESE 6.9 mph - N/A   Clear
3:35 AM 52.2 °F - 35.8 °F 54% 29.74 in 10.0 mi SE 5.8 mph - N/A   Mostly Cloudy
3:55 AM 52.0 °F - 35.6 °F 54% 29.73 in 10.0 mi ESE 6.9 mph - N/A   Overcast
4:15 AM 52.0 °F - 35.2 °F 53% 29.71 in 10.0 mi East 4.6 mph - N/A   Mostly Cloudy
4:35 AM 51.4 °F - 35.1 °F 54% 29.70 in 10.0 mi East 3.5 mph - N/A   Mostly Cloudy
4:55 AM 51.6 °F - 34.7 °F 52% 29.68 in 10.0 mi East 5.8 mph - N/A   Scattered Clouds
5:15 AM 52.2 °F - 33.8 °F 50% 29.67 in 10.0 mi East 9.2 mph 16.1 mph N/A   Mostly Cloudy
5:35 AM 52.7 °F - 33.8 °F 49% 29.66 in 10.0 mi ESE 6.9 mph - N/A   Scattered Clouds
5:55 AM 52.2 °F - 33.8 °F 50% 29.65 in 10.0 mi East 11.5 mph - N/A   Scattered Clouds
6:15 AM 52.7 °F - 32.2 °F 46% 29.64 in 10.0 mi ESE 8.1 mph 16.1 mph N/A   Mostly Cloudy
6:35 AM 53.2 °F - 29.8 °F 41% 29.62 in 10.0 mi ESE 10.4 mph - N/A   Overcast
6:55 AM 52.9 °F - 30.2 °F 42% 29.60 in 10.0 mi ENE 6.9 mph - N/A   Overcast
7:15 AM 52.0 °F - 31.1 °F 45% 29.57 in 10.0 mi ENE 9.2 mph - N/A   Overcast
7:35 AM 51.1 °F - 31.8 °F 48% 29.55 in 10.0 mi ENE 6.9 mph - N/A   Overcast
7:55 AM 51.3 °F - 31.8 °F 47% 29.54 in 10.0 mi ENE 8.1 mph - N/A   Overcast
8:15 AM 51.3 °F - 32.0 °F 48% 29.53 in 10.0 mi East 9.2 mph - N/A   Overcast
8:35 AM 47.7 °F - 38.7 °F 71% 29.52 in 5.0 mi ENE 6.9 mph - 0.03 in Rain Rain
8:55 AM 45.9 °F 43.6 °F 40.6 °F 82% 29.52 in 5.0 mi ENE 4.6 mph - 0.09 in Rain Heavy Rain
9:15 AM 45.5 °F 40.8 °F 41.7 °F 87% 29.50 in 3.0 mi NE 9.2 mph - 0.09 in Rain Heavy Rain
9:35 AM 45.1 °F 42.0 °F 43.3 °F 93% 29.48 in 0.8 mi NE 5.8 mph - 0.28 in   Overcast
9:55 AM 43.9 °F 39.3 °F 43.0 °F 97% 29.47 in 3.0 mi ENE 8.1 mph - 0.38 in Rain Heavy Rain
10:15 AM 43.9 °F 39.9 °F 43.2 °F 97% 29.45 in 2.5 mi NE 6.9 mph - 0.09 in Rain Light Rain
10:35 AM 44.1 °F 39.5 °F 43.3 °F 97% 29.44 in 3.0 mi NE 8.1 mph 16.1 mph 0.20 in Rain Heavy Rain
10:55 AM 44.4 °F 39.0 °F 43.7 °F 97% 29.40 in 3.0 mi NE 10.4 mph - 0.33 in Rain Heavy Rain
11:15 AM 44.2 °F 38.8 °F 43.7 °F 98% 29.38 in 2.0 mi NE 10.4 mph - 0.10 in Rain Light Rain
11:35 AM 44.8 °F 38.7 °F 44.4 °F 99% 29.34 in 3.0 mi NE 12.7 mph 18.4 mph 0.21 in Rain Heavy Rain
11:55 AM 45.5 °F 39.6 °F 44.8 °F 97% 29.31 in 4.0 mi NE 12.7 mph 21.9 mph 0.30 in Rain Rain
12:15 PM 45.9 °F 39.7 °F 45.3 °F 98% 29.27 in 5.0 mi NE 13.8 mph 18.4 mph 0.06 in Rain Rain
12:35 PM 46.4 °F 40.7 °F 45.9 °F 98% 29.25 in 5.0 mi ENE 12.7 mph 18.4 mph 0.11 in Rain Rain
12:55 PM 47.3 °F - 46.8 °F 98% 29.22 in 3.0 mi ENE 12.7 mph 24.2 mph 0.20 in Rain Heavy Rain
1:15 PM 48.2 °F - 47.5 °F 97% 29.21 in 3.0 mi ENE 10.4 mph 20.7 mph 0.10 in Rain Heavy Rain
1:35 PM 48.7 °F - 48.2 °F 98% 29.19 in 4.0 mi ENE 10.4 mph 18.4 mph 0.20 in Rain Heavy Rain
1:55 PM 49.5 °F - 48.9 °F 98% 29.17 in 4.0 mi ENE 11.5 mph 18.4 mph 0.30 in Rain Rain
2:15 PM 50.0 °F - 49.5 °F 98% 29.16 in 5.0 mi East 12.7 mph 19.6 mph 0.04 in Rain Rain
2:35 PM 50.2 °F - 49.6 °F 98% 29.13 in 10.0 mi East 8.1 mph 18.4 mph 0.05 in Rain Light Rain
2:55 PM 50.4 °F - 50.0 °F 99% 29.13 in 5.0 mi East 10.4 mph 18.4 mph 0.05 in   Drizzle
3:15 PM 50.0 °F - 49.5 °F 98% 29.12 in 10.0 mi East 6.9 mph - N/A   Light Drizzle
3:35 PM 50.2 °F - 49.6 °F 98% 29.13 in 10.0 mi ESE 8.1 mph - N/A   Overcast
3:55 PM 50.0 °F - 49.5 °F 98% 29.12 in 10.0 mi East 6.9 mph - N/A Rain Light Rain
4:15 PM 50.4 °F - 50.0 °F 99% 29.13 in 10.0 mi ESE 4.6 mph - N/A Rain Light Rain
4:35 PM 50.9 °F - 50.4 °F 98% 29.12 in 10.0 mi East 4.6 mph - N/A   Overcast
4:55 PM 51.8 °F - 51.1 °F 97% 29.13 in 10.0 mi Calm Calm - N/A   Overcast
5:15 PM 52.0 °F - 51.4 °F 98% 29.14 in 10.0 mi Calm Calm - N/A   Mostly Cloudy
5:35 PM 51.8 °F - 51.1 °F 97% 29.15 in 10.0 mi South 4.6 mph - N/A   Mostly Cloudy
5:55 PM 50.7 °F - 50.2 °F 98% 29.15 in 10.0 mi Calm Calm - N/A   Overcast
6:15 PM 49.8 °F - 49.1 °F 97% 29.15 in 10.0 mi Calm Calm - N/A   Scattered Clouds
6:35 PM 48.6 °F - 48.2 °F 99% 29.15 in 10.0 mi Calm Calm - N/A   Scattered Clouds
6:55 PM 48.6 °F - 48.2 °F 99% 29.15 in 10.0 mi Calm Calm - N/A   Scattered Clouds
7:15 PM 48.4 °F - 48.0 °F 99% 29.18 in 10.0 mi South 11.5 mph 16.1 mph 0.01 in Rain Rain
7:35 PM 47.5 °F - 46.9 °F 98% 29.18 in 5.0 mi Calm Calm - 0.05 in Rain Rain
7:55 PM 46.9 °F - 46.4 °F 98% 29.18 in 10.0 mi SSE 3.5 mph - 0.06 in Rain Light Rain
8:15 PM 46.9 °F - 46.4 °F 98% 29.18 in 10.0 mi SSE 5.8 mph - N/A Rain Rain
8:35 PM 47.1 °F - 46.4 °F 97% 29.18 in 4.0 mi SSE 4.6 mph - 0.04 in Rain Heavy Rain
8:55 PM 47.3 °F - 46.6 °F 97% 29.18 in 10.0 mi SSE 3.5 mph - 0.05 in Rain Light Rain
9:15 PM 46.9 °F - 46.4 °F 98% 29.18 in 10.0 mi Calm Calm - N/A   Overcast
9:35 PM 46.8 °F - 46.4 °F 99% 29.18 in 10.0 mi Calm Calm - N/A   Overcast
9:55 PM 46.9 °F - 46.4 °F 98% 29.18 in 10.0 mi Calm Calm - N/A   Overcast
10:15 PM 46.6 °F - 46.2 °F 99% 29.19 in 10.0 mi Calm Calm - N/A   Overcast
10:35 PM 46.6 °F - 46.0 °F 98% 29.20 in 10.0 mi South 3.5 mph - N/A   Overcast
10:55 PM 46.4 °F 45.2 °F 45.9 °F 98% 29.20 in 10.0 mi South 3.5 mph - N/A   Overcast
11:15 PM 46.0 °F 44.8 °F 45.5 °F 98% 29.20 in 10.0 mi SE 3.5 mph - N/A   Overcast
11:35 PM 45.9 °F 43.6 °F 45.3 °F 98% 29.20 in 10.0 mi South 4.6 mph - N/A   Overcast
11:55 PM 45.5 °F - 45.0 °F 98% 29.20 in 10.0 mi Calm Calm - N/A   Overcast